Date,TemperatureHighF,TemperatureAvgF,TemperatureLowF,DewpointHighF,DewpointAvgF,DewpointLowF,HumidityHigh,HumidityAvg,HumidityLow,PressureMaxIn,PressureMinIn,WindSpeedMaxMPH,WindSpeedAvgMPH,GustSpeedMaxMPH,PrecipitationSumIn
2013-3-1,45.0,38.9,33.3,38.9,26.7,20.3,93,64,44,29.35,29.21,5,0,5,0.04
2013-3-2,42.8,37.4,32.5,23.8,21.3,19.3,64,52,42,29.35,29.29,5,0,5,0.04
2013-3-3,44.1,36.1,32.0,31.3,23.6,18.8,89,61,43,29.29,29.23,5,0,5,0.04
2013-3-4,41.9,34.7,28.4,23.1,17.9,13.9,66,50,39,29.41,29.26,12,2,12,0.04
2013-3-5,47.7,37.0,30.0,28.9,20.7,16.2,78,52,38,29.74,29.41,6,0,6,0.04
2013-3-6,36.5,35.8,35.1,34.4,30.4,28.1,92,81,74,29.71,29.68,8,1,8,0.12
2013-3-7,35.8,34.1,32.5,32.5,30.6,24.9,94,87,66,29.71,29.65,7,0,7,0.12
2013-3-8,38.3,34.4,32.5,37.5,31.1,19.0,98,89,53,29.80,29.56,3,0,3,0.00
2013-3-9,50.7,37.2,26.6,24.1,19.8,14.6,79,51,29,30.00,29.77,6,1,6,0.75
2013-3-10,45.3,34.9,21.9,35.7,23.9,18.1,88,66,42,30.06,29.94,7,0,7,0.00
2013-3-11,54.5,43.2,35.8,41.0,32.5,27.2,89,68,40,29.97,29.80,9,2,9,0.00
2013-3-12,57.2,52.3,44.1,56.1,49.4,41.0,96,90,72,29.83,29.38,12,2,12,0.39
2013-3-13,55.0,48.0,43.3,53.9,44.3,39.1,96,87,81,29.44,29.41,3,0,3,0.00
2013-3-17,40.8,34.1,26.8,12.5,7.3,0.9,50,32,26,29.94,29.68,9,1,9,0.00
2013-3-18,38.7,28.8,16.3,23.9,5.0,-6.5,77,37,26,30.09,29.88,8,1,8,0.00
2013-3-19,38.5,34.9,29.7,38.0,33.9,23.7,98,96,77,29.88,29.26,11,2,11,0.16
2013-3-20,35.2,29.9,26.1,31.5,26.6,10.1,98,90,40,29.47,29.38,0,0,0,0.20
2013-3-21,36.7,25.7,21.6,26.4,15.3,11.4,81,65,41,29.50,29.26,6,0,6,0.04
2013-3-22,41.2,33.6,26.6,24.1,14.4,10.6,83,46,33,29.41,29.29,8,2,8,0.00
2013-3-23,44.2,35.8,29.1,18.4,15.0,12.2,60,43,32,29.47,29.32,9,2,9,0.00
2013-3-24,49.6,39.0,30.9,21.6,17.3,12.6,58,42,31,29.47,29.41,6,1,6,0.00
2013-3-25,46.2,37.1,30.0,26.1,23.2,19.3,71,57,38,29.44,29.18,8,1,8,0.00
2013-3-26,51.1,40.9,32.9,25.9,20.0,12.6,65,44,29,29.47,29.21,6,0,6,0.00
2013-3-27,57.6,37.8,28.6,24.0,16.5,12.7,55,43,27,29.56,29.41,8,0,8,0.00
2013-3-28,50.2,43.1,36.7,34.9,27.5,23.1,83,56,37,29.65,29.56,6,0,6,0.00
2013-3-29,59.2,48.8,33.8,29.7,25.8,21.6,76,43,27,29.74,29.62,6,1,6,0.00
2013-3-30,59.0,47.3,34.2,26.3,20.9,10.5,64,37,22,29.77,29.68,8,1,8,0.00
2013-3-31,60.6,44.9,27.0,39.4,23.1,14.6,78,45,24,29.77,29.41,13,2,13,0.00